Simultaneous Nadir Overpasses (SNOs) Predictions

Prediction of SNOs between METOP-A and TERRA Satellite Orbit:

Table of predicted SNOs for the next 14.0 days since TLE Epoch: 1/30/2021
Index Date (METOP-A) Time (METOP-A) Lat,Lon (METOP-A) SZA (METOP-A ) Date (TERRA) Time (TERRA) Lat,Lon (TERRA) SZA (TERRA ) Distance(km) Time Diff (sec)
1 02/01/2021 01:30:46 81.35,-155.01 100.77 02/01/2021 01:31:00 81.35,-155.05 100.77 0.70 14
2 02/01/2021 02:21:26 -81.34, 12.63 79.22 02/01/2021 02:20:27 -81.35, 12.49 79.26 2.54 59
3 02/03/2021 21:05:08 81.34, -88.53 99.95 02/03/2021 21:05:13 81.36, -88.50 99.96 1.69 5
4 02/03/2021 21:55:49 -81.35, 78.75 80.07 02/03/2021 21:54:41 -81.33, 78.69 80.12 1.61 68
5 02/06/2021 15:48:50 -81.35, 170.35 80.93 02/06/2021 15:50:00 -81.36, 170.31 80.89 1.34 70
6 02/06/2021 16:39:31 81.35, -22.45 99.06 02/06/2021 16:39:27 81.34, -22.38 99.06 1.71 4
7 02/09/2021 11:23:12 -81.36,-123.58 81.84 02/09/2021 11:24:13 -81.34,-123.57 81.83 1.68 61
8 02/09/2021 12:13:52 81.35, 44.00 98.17 02/09/2021 12:13:39 81.34, 44.09 98.17 1.68 13
9 02/12/2021 06:57:34 -81.35, -57.14 82.76 02/12/2021 06:58:26 -81.34, -57.12 82.75 1.28 52



Historial Predications of SNOs between METOP-A and TERRA
